CT2IRK-11 Weather Reports


time (UTC)temp
C
wind
direction
speed
KPH
gust
KPH
rain 1hr
cm
rain 24hr
cm
rain mn
cm
humidity
%
barometer
mb
20260903140004 41 329 8.0 11.3 0.00 0.00 0.00 18 1011.7
20260903135005 41 333 8.0 12.9 0.00 0.00 0.00 18 1011.7
20260903134005 41 355 4.8 11.3 0.00 0.00 0.00 19 1011.7
20260903133005 41 346 9.7 11.3 0.00 0.00 0.00 18 1011.8
20260903130004 40 0 0.0 8.0 0.00 0.00 0.00 20 1012.1
20260903125005 40 338 0.0 0.0 0.00 0.00 0.00 21 1012.3
20260903124004 40 28 3.2 8.0 0.00 0.00 0.00 21 1012.3
20260903123006 40 35 0.0 9.7 0.00 0.00 0.00 22 1012.3
20260903122005 40 341 0.0 8.0 0.00 0.00 0.00 25 1012.4
20260903121005 40 317 0.0 4.8 0.00 0.00 0.00 24 1012.5
20260903120004 40 328 0.0 0.0 0.00 0.00 0.00 24 1012.7
20260903115005 39 60 0.0 0.0 0.00 0.00 0.00 25 1012.8
20260903113004 38 70 0.0 0.0 0.00 0.00 0.00 27 1012.9
20260903112005 37 355 0.0 0.0 0.00 0.00 0.00 28 1013.0
20260903111005 36 338 0.0 0.0 0.00 0.00 0.00 31 1013.2
20260903110006 36 306 0.0 0.0 0.00 0.00 0.00 31 1013.0
20260903105005 34 6 0.0 0.0 0.00 0.00 0.00 34 1013.2
20260903104005 33 350 0.0 0.0 0.00 0.00 0.00 37 1013.2
20260903103005 33 328 0.0 0.0 0.00 0.00 0.00 39 1013.1
20260903102004 32 17 0.0 1.6 0.00 0.00 0.00 41 1013.2
20260903101005 31 345 1.6 9.7 0.00 0.00 0.00 45 1013.1
20260903100005 30 355 4.8 9.7 0.00 0.00 0.00 47 1013.0
20260903095005 28 14 4.8 12.9 0.00 0.00 0.00 50 1012.9
20260903094005 28 30 3.2 12.9 0.00 0.00 0.00 53 1012.9
20260903093006 27 40 8.0 11.3 0.00 0.00 0.00 57 1012.8
20260903092004 26 25 8.0 9.7 0.00 0.00 0.00 63 1012.9
20260903091004 26 19 0.0 1.6 0.00 0.00 0.00 64 1013.1
20260903090005 25 22 3.2 9.7 0.00 0.00 0.00 66 1013.0
20260903085005 25 58 11.3 11.3 0.00 0.00 0.00 67 1013.1
20260903084005 24 45 0.0 11.3 0.00 0.00 0.00 71 1013.1
20260903083004 23 38 1.6 9.7 0.00 0.00 0.00 70 1013.2
20260903081004 22 66 0.0 1.6 0.00 0.00 0.00 77 1013.4
20260903080005 22 68 0.0 0.0 0.00 0.00 0.00 79 1013.4
20260903075005 23 0 0.0 0.0 0.00 0.00 0.00 74 1013.3
20260903074004 22 325 0.0 0.0 0.00 0.00 0.00 77 1013.3
20260903073004 21 259 0.0 0.0 0.00 0.00 0.00 81 1013.2
20260903072005 20 292 0.0 0.0 0.00 0.00 0.00 86 1013.1
20260903070006 18 22 0.0 0.0 0.00 0.00 0.00 95 1012.9
20260903065004 17 7 0.0 0.0 0.00 0.00 0.00 99 1012.8
20260903064005 16 338 0.0 0.0 0.00 0.00 0.00 99 1012.8
20260903063006 16 22 0.0 0.0 0.00 0.00 0.00 99 1012.7
20260903062007 16 292 0.0 0.0 0.00 0.00 0.00 99 1012.7
20260903061011 16 306 0.0 0.0 0.00 0.00 0.00 99 1012.5
20260903055010 16 40 0.0 0.0 0.00 0.00 0.00 99 1012.2
20260903054006 16 37 0.0 0.0 0.00 0.00 0.00 99 1012.2
20260903053005 16 292 0.0 0.0 0.00 0.00 0.00 99 1012.3
20260903051006 16 22 0.0 0.0 0.00 0.00 0.00 99 1012.2
20260903050005 16 303 0.0 0.0 0.00 0.00 0.00 99 1012.2
20260903045005 16 248 0.0 0.0 0.00 0.00 0.00 99 1012.1
20260903044006 16 180 0.0 0.0 0.00 0.00 0.00 99 1012.1
20260903042005 16 190 0.0 0.0 0.00 0.00 0.00 99 1011.9
20260903041006 16 270 0.0 0.0 0.00 0.00 0.00 99 1011.8
20260903040008 16 338 0.0 0.0 0.00 0.00 0.00 98 1011.8
20260903035005 16 234 0.0 0.0 0.00 0.00 0.00 99 1012.0
20260903034006 17 223 0.0 0.0 0.00 0.00 0.00 99 1012.0
20260903033006 17 178 0.0 0.0 0.00 0.00 0.00 98 1011.7
20260903031005 17 270 0.0 0.0 0.00 0.00 0.00 98 1011.7
20260903030006 17 301 0.0 0.0 0.00 0.00 0.00 97 1011.8
20260903025005 17 225 0.0 0.0 0.00 0.00 0.00 95 1011.8
20260903024005 18 225 0.0 0.0 0.00 0.00 0.00 94 1011.8
20260903023005 18 233 0.0 0.0 0.00 0.00 0.00 93 1011.8
20260903021005 18 219 0.0 0.0 0.00 0.00 0.00 92 1011.8
20260903020006 18 211 0.0 0.0 0.00 0.00 0.00 91 1011.8
20260903015005 18 270 0.0 0.0 0.00 0.00 0.00 88 1011.8
20260903014006 19 248 0.0 0.0 0.00 0.00 0.00 86 1011.8
20260903013006 19 225 0.0 0.0 0.00 0.00 0.00 85 1012.0
20260903012005 20 225 0.0 0.0 0.00 0.00 0.00 83 1012.1
20260903011005 20 225 0.0 0.0 0.00 0.00 0.00 81 1012.1
20260903005006 21 193 0.0 0.0 0.00 0.00 0.00 79 1012.3
20260903004005 21 270 0.0 0.0 0.00 0.00 0.00 74 1012.3
20260903003005 23 12 0.0 0.0 0.00 0.00 0.00 65 1012.2
20260903002006 24 35 0.0 12.9 0.00 0.00 0.00 54 1012.3
20260903001006 24 54 9.7 16.1 0.00 0.00 0.00 53 1012.2
20260903000005 24 68 12.9 14.5 0.00 0.00 0.00 55 1012.3
20260902235006 24 54 12.9 14.5 0.00 0.00 0.00 57 1012.1
20260902234005 24 78 12.9 16.1 0.00 0.00 0.00 58 1012.1
20260902233006 23 68 14.5 16.1 0.00 0.00 0.00 60 1012.0
20260902232006 23 45 12.9 16.1 0.00 0.00 0.00 62 1012.0
20260902231006 23 45 14.5 19.3 0.00 0.00 0.00 63 1012.2
20260902230007 23 45 11.3 19.3 0.00 0.00 0.00 66 1012.3
20260902225006 23 65 12.9 19.3 0.00 0.00 0.00 67 1012.3
20260902224005 23 48 14.5 19.3 0.00 0.00 0.00 67 1012.3
20260902223006 23 53 16.1 19.3 0.00 0.00 0.00 68 1012.2
20260902222005 23 56 14.5 20.9 0.00 0.00 0.00 68 1012.2
20260902221006 23 64 14.5 19.3 0.00 0.00 0.00 68 1012.3
20260902215006 24 45 9.7 20.9 0.00 0.00 0.00 67 1012.3
20260902214005 24 56 12.9 20.9 0.00 0.00 0.00 67 1012.3
20260902213005 24 72 12.9 16.1 0.00 0.00 0.00 66 1012.1
20260902212006 24 59 9.7 20.9 0.00 0.00 0.00 65 1012.3
20260902211005 25 64 16.1 19.3 0.00 0.00 0.00 64 1012.2
20260902205005 25 50 12.9 16.1 0.00 0.00 0.00 60 1012.2
20260902204006 25 85 14.5 16.1 0.00 0.00 0.00 59 1012.2
20260902203005 26 51 11.3 16.1 0.00 0.00 0.00 59 1012.1
20260902202006 26 67 11.3 14.5 0.00 0.00 0.00 58 1012.0
20260902201010 26 47 11.3 16.1 0.00 0.00 0.00 58 1011.7
20260902194005 27 49 3.2 16.1 0.00 0.00 0.00 57 1011.7
20260902193007 27 45 0.0 9.7 0.00 0.00 0.00 57 1011.4
20260902192005 27 32 0.0 1.6 0.00 0.00 0.00 55 1011.3
20260902191005 28 57 0.0 11.3 0.00 0.00 0.00 55 1011.3
20260902190006 28 31 9.7 12.9 0.00 0.00 0.00 54 1011.3
20260902185005 29 31 6.4 14.5 0.00 0.00 0.00 53 1011.4
20260902184005 30 330 9.7 14.5 0.00 0.00 0.00 51 1011.4
20260902182005 31 0 0.0 11.3 0.00 0.00 0.00 49 1011.1
20260902181005 31 36 9.7 12.9 0.00 0.00 0.00 48 1011.2
20260902180007 32 42 8.0 12.9 0.00 0.00 0.00 44 1011.0
20260902175005 36 292 0.0 4.8 0.00 0.00 0.00 19 1010.9
20260902174005 37 259 1.6 4.8 0.00 0.00 0.00 19 1010.9
20260902173005 37 279 0.0 4.8 0.00 0.00 0.00 18 1010.8
20260902172006 36 270 0.0 8.0 0.00 0.00 0.00 17 1010.9
20260902171011 36 270 0.0 0.0 0.00 0.00 0.00 16 1011.1
20260902170005 35 16 3.2 8.0 0.00 0.00 0.00 18 1011.3
20260902165025 36 311 0.0 8.0 0.00 0.00 0.00 20 1011.2
20260902163005 36 279 4.8 9.7 0.00 0.00 0.00 22 1011.1
20260902162005 36 248 8.0 9.7 0.00 0.00 0.00 23 1011.2
20260902161005 36 324 6.4 9.7 0.00 0.00 0.00 23 1011.5
20260902155005 36 248 9.7 9.7 0.00 0.00 0.00 24 1011.6
20260902154005 36 270 3.2 11.3 0.00 0.00 0.00 24 1011.6
20260902153005 37 283 0.0 8.0 0.00 0.00 0.00 24 1011.6
20260902152005 37 270 0.0 8.0 0.00 0.00 0.00 23 1011.7
20260902151005 36 276 0.0 9.7 0.00 0.00 0.00 26 1011.8
20260902150005 35 344 4.8 12.9 0.00 0.00 0.00 27 1012.0
20260902145004 35 274 6.4 12.9 0.00 0.00 0.00 25 1012.0
20260902143005 35 311 0.0 9.7 0.00 0.00 0.00 28 1012.0